GFSGBSN_sfc_wetblb_129.txt.gz
Wetbulb
57.10 57.23 57.29 57.26 57.12 56.87 56.73 57.03 57.38 57.35 57.10 56.70 56.75 56.83 57.00 57.20 57.33 57.68 57.81 58.02 58.41 58.66 59.81 59.82 59.53 59.53 54.83 49.56 50.75 67.34 72.58 71.83 62.55 56.60 53.49 54.61 56.47 54.94 50.45 50.20 51.87 49.44 53.24 52.21 51.23 50.63 51.61
56.00 56.78 56.78 56.69 56.59 56.31 56.33 56.35 56.39 56.58 56.53 56.33 56.31 56.41 56.53 56.62 57.09 57.56 57.62 57.94 57.85 58.46 59.88 59.37 59.31 59.70 53.90 51.75 64.45 67.10 62.52 57.87 54.95 54.76 53.93 56.33 57.08 56.35 52.09 50.27 49.39 53.02 54.51 52.69 50.67 52.45 54.37
55.33 55.87 56.01 56.10 56.05 55.78 55.71 55.88 55.90 55.91 55.80 55.84 55.91 56.17 56.17 56.41 56.29 56.78 56.97 57.05 56.94 58.10 59.66 59.52 59.89 59.34 56.41 53.62 64.90 61.32 57.31 54.18 53.67 54.89 54.52 57.96 58.83 54.94 52.39 49.97 54.09 54.86 50.81 50.43 50.35 50.89 50.82
55.21 55.32 55.50 55.78 55.69 55.49 55.28 55.32 55.38 55.39 55.35 55.38 55.68 55.90 55.70 55.90 56.01 56.38 56.52 56.21 56.77 58.34 59.80 60.12 60.26 55.89 51.35 62.82 62.04 59.65 54.49 52.99 54.28 53.74 55.48 58.16 57.98 54.00 49.99 53.54 53.59 50.75 46.57 43.82 49.98 50.94 51.86
54.75 54.48 54.68 55.18 55.20 54.89 54.70 54.76 54.86 54.69 55.07 55.42 55.48 55.43 55.55 55.47 55.66 55.78 55.24 55.73 57.48 60.30 60.51 60.66 54.98 54.24 54.23 64.11 59.11 58.92 57.41 56.37 55.36 54.34 54.03 59.02 55.20 51.05 52.46 48.63 45.22 45.14 42.77 44.04 47.99 51.20 52.38
54.08 54.11 54.03 54.63 54.68 54.46 54.20 54.10 54.19 54.58 54.92 54.98 54.98 54.88 54.73 54.88 54.98 54.81 54.69 57.31 61.12 59.93 59.74 60.44 60.39 52.92 56.95 56.62 58.90 58.64 57.71 59.04 56.99 55.76 55.85 54.36 49.55 46.29 45.58 44.61 41.09 42.67 42.54 42.41 45.63 48.63 50.94
53.69 53.54 53.68 54.14 54.11 53.61 53.48 53.58 53.76 54.19 54.59 54.69 54.53 54.45 54.24 54.42 54.43 54.36 52.06 53.20 48.96 50.23 53.57 47.87 49.67 54.50 57.72 60.71 59.31 57.96 57.80 57.33 56.18 53.71 48.59 51.10 46.61 44.18 46.90 47.19 48.25 47.54 45.57 45.09 48.46 49.79 49.66
53.29 53.28 53.05 53.30 53.14 53.44 53.68 53.74 54.04 54.10 54.28 54.32 54.20 53.99 53.91 53.87 53.65 53.65 50.84 51.14 50.78 51.60 48.54 54.54 56.73 56.92 58.93 58.24 52.86 56.03 57.63 52.50 51.89 48.73 49.26 46.62 44.91 50.17 51.37 50.58 48.96 47.35 45.07 45.01 48.33 51.15 48.18
52.80 52.67 52.63 52.78 53.39 53.90 53.92 53.82 53.81 53.73 53.87 53.81 53.67 53.50 53.38 53.07 52.72 52.03 50.39 53.50 56.51 52.90 47.19 51.51 54.48 54.73 54.95 56.65 53.13 53.60 55.69 53.08 50.97 48.55 47.49 44.43 47.92 52.16 51.99 49.62 47.90 44.10 44.02 45.04 45.90 48.49 48.24
52.49 52.55 53.02 53.02 53.28 53.80 53.73 53.67 53.46 53.40 53.36 53.17 53.09 53.09 52.60 51.85 48.22 47.26 53.16 55.47 53.28 53.08 43.12 47.98 49.85 53.74 54.59 53.49 50.74 55.59 56.57 54.36 51.54 49.20 49.07 47.36 50.92 50.76 49.29 49.22 47.40 44.55 48.74 48.74 47.15 44.28 41.43
52.99 53.58 53.73 53.77 54.01 53.90 53.67 53.44 53.30 53.09 52.82 52.76 52.68 52.65 52.33 51.45 43.92 47.14 54.37 50.37 51.83 52.94 38.02 52.89 51.10 55.52 53.11 52.34 51.48 52.75 56.16 52.88 49.98 49.70 47.60 46.79 47.94 48.10 48.69 49.46 49.55 46.72 49.14 47.76 47.56 41.97 40.00
53.40 53.60 53.91 53.95 54.07 54.02 53.52 53.32 53.11 52.72 52.55 52.43 52.30 52.01 51.85 48.69 45.17 48.93 51.24 49.37 53.13 43.90 37.52 50.27 51.37 49.27 49.59 49.27 50.73 51.80 52.72 52.84 52.73 49.55 47.98 48.14 51.16 50.00 50.44 51.65 51.01 50.47 47.83 45.25 42.62 39.86 37.46
52.89 53.70 53.95 53.97 53.88 53.71 53.11 53.09 52.86 52.41 52.22 51.99 51.34 50.81 49.85 50.23 41.84 46.99 49.44 52.09 43.20 39.50 50.09 46.91 45.73 46.71 46.27 46.86 48.36 49.88 48.79 47.80 44.84 40.95 40.22 46.29 47.71 49.56 51.74 47.88 49.57 47.25 42.01 36.72 37.31 36.35 37.14
53.28 53.77 53.81 53.86 53.67 53.32 53.21 53.09 52.65 52.32 51.82 51.15 50.19 50.35 49.33 49.71 47.48 49.80 51.11 47.92 38.89 46.55 48.11 50.24 46.80 45.25 46.15 46.69 47.22 48.53 46.71 44.57 46.33 44.37 41.18 40.68 41.59 47.87 50.90 47.83 46.51 44.51 42.44 37.59 33.33 33.54 37.51
53.22 53.62 53.74 53.53 53.42 53.13 53.32 53.11 52.61 52.01 51.51 50.44 49.53 43.44 44.44 47.89 51.12 48.26 48.83 40.86 42.20 46.27 49.99 48.01 45.85 43.96 42.78 45.84 46.48 46.00 45.21 44.73 46.80 46.14 42.54 40.32 43.38 50.38 51.50 50.85 49.85 45.25 41.14 42.98 37.95 34.85 35.08
53.20 53.54 53.57 53.53 53.38 53.13 52.97 53.07 52.68 52.22 51.20 49.96 42.79 43.18 45.68 50.45 52.27 48.60 44.57 40.83 43.95 49.74 49.18 47.61 44.28 44.77 41.66 44.77 44.31 43.98 44.16 47.63 47.76 48.45 45.59 44.66 41.73 46.45 51.03 50.95 49.98 46.71 47.08 40.71 37.70 33.08 31.71
53.45 53.63 53.61 53.34 53.38 53.28 52.97 53.09 52.76 51.92 50.78 49.10 41.78 42.09 49.01 51.41 50.74 46.27 39.68 39.67 45.93 50.34 49.72 46.61 45.58 44.63 44.38 45.01 45.96 43.29 44.64 48.09 49.34 48.37 47.85 43.94 43.65 44.27 47.81 45.07 45.38 45.45 42.54 40.54 39.52 36.65 34.03
53.16 53.30 53.50 53.46 53.27 53.22 53.07 52.83 52.48 51.44 49.91 44.66 36.21 36.43 50.18 49.79 44.03 38.35 39.93 43.96 47.68 47.27 48.30 47.48 47.30 46.59 45.31 45.74 44.43 44.74 46.85 48.65 52.29 49.46 46.47 46.53 41.47 40.02 43.89 47.88 49.44 46.43 43.41 41.71 38.85 36.82 35.82
52.29 52.95 53.48 53.50 53.19 53.01 52.99 52.64 52.22 51.12 50.03 43.01 34.15 36.32 48.96 48.61 39.99 39.01 41.34 45.09 46.50 45.38 46.08 46.40 46.56 48.78 47.08 44.30 41.08 46.87 49.62 51.88 52.72 50.76 47.66 47.17 40.42 37.75 41.06 43.66 45.60 44.94 45.23 42.84 39.94 38.53 35.98
52.30 52.30 53.15 53.46 53.15 53.07 53.11 52.85 52.35 51.32 50.35 41.53 38.03 40.73 45.14 45.24 42.37 40.76 40.61 43.09 43.59 49.55 48.78 48.70 47.78 47.95 45.81 43.94 43.95 43.39 46.95 51.24 51.94 51.53 58.19 51.73 40.23 40.01 38.84 39.94 42.83 42.14 44.68 44.53 41.15 37.80 37.15
52.10 51.91 52.63 53.11 53.07 52.89 53.15 53.03 52.39 51.73 50.33 41.49 41.95 43.05 42.55 39.76 42.17 41.39 41.15 44.13 46.41 45.58 48.26 47.19 44.03 46.42 44.98 40.41 41.95 43.30 46.76 48.18 50.80 55.09 47.91 45.64 41.30 42.09 41.55 45.18 44.57 43.86 44.97 44.56 40.77 39.98 38.67
51.91 51.85 52.01 52.26 52.74 53.01 53.09 53.09 52.64 51.45 49.05 43.79 40.83 39.32 41.05 39.47 41.50 39.65 40.13 39.00 43.32 45.20 43.98 44.61 44.51 48.35 45.67 42.75 43.20 44.28 44.56 44.97 44.00 47.09 43.20 43.14 39.77 40.71 38.93 45.42 45.82 44.67 46.20 46.30 44.45 43.37 41.94
51.78 51.86 51.86 51.88 52.20 52.51 52.94 53.21 52.64 51.07 45.80 37.71 39.71 41.23 40.56 40.18 39.08 38.80 39.04 41.45 45.06 44.82 48.69 49.87 49.39 47.23 47.18 48.14 49.09 47.08 48.28 46.87 46.09 45.28 42.68 42.03 41.18 38.18 36.14 42.89 43.57 39.68 44.52 45.12 44.80 45.08 44.39
51.76 51.76 51.68 51.70 51.99 52.22 52.57 53.03 52.74 51.44 46.99 40.16 38.93 39.28 38.49 36.67 39.22 40.33 43.89 44.59 44.66 45.04 43.68 49.35 48.96 46.28 49.46 51.30 50.42 47.87 45.93 45.50 45.74 43.42 44.87 42.40 40.48 38.42 36.73 38.45 33.41 42.78 47.08 48.59 46.96 48.32 47.88
51.42 51.51 51.65 51.63 51.88 52.15 52.34 52.41 52.78 52.06 50.82 42.63 41.06 38.90 38.72 35.69 39.69 41.40 43.00 42.73 43.44 44.00 45.52 46.98 49.05 49.18 48.04 47.71 43.34 40.76 41.03 43.29 44.01 45.84 43.50 43.93 40.69 37.48 36.95 35.22 39.63 44.51 47.16 47.13 45.99 45.07 52.47
51.34 51.45 51.63 51.57 51.76 52.01 52.13 52.26 52.49 52.34 50.96 43.03 41.14 40.80 39.93 37.49 35.94 42.99 40.97 41.82 38.85 38.46 42.66 46.43 48.49 47.30 46.28 42.47 41.40 36.27 36.69 38.42 39.29 41.47 40.98 42.05 40.91 39.27 35.72 34.23 33.91 42.43 49.37 52.15 50.21 40.11 51.63
51.41 51.22 51.39 51.70 51.95 52.01 51.88 52.16 52.43 52.14 51.42 46.58 42.60 42.03 40.23 38.50 40.12 41.59 39.63 39.76 42.04 40.09 38.99 41.62 43.87 45.01 44.31 38.83 37.23 36.45 36.97 41.31 37.75 37.47 38.09 37.04 37.29 36.54 35.89 35.26 39.22 45.86 49.63 51.75 39.82 41.84 50.80
52.00 51.82 51.79 51.62 51.89 51.72 51.80 51.91 52.20 52.24 52.11 46.77 43.13 43.73 41.36 39.13 41.05 44.22 45.48 41.26 41.21 40.45 38.03 41.24 42.15 42.21 42.53 39.03 37.71 37.19 37.50 39.77 37.14 38.45 37.71 37.98 35.85 34.91 35.48 34.12 35.46 49.96 51.89 44.72 46.01 49.20 52.97
51.45 51.50 51.15 51.45 51.39 51.66 51.76 51.68 51.93 52.05 52.07 46.91 39.10 44.02 44.79 39.44 40.88 45.17 47.64 48.45 46.64 45.82 41.81 40.22 40.67 40.02 42.35 39.82 38.77 40.07 40.17 39.84 37.53 36.21 41.79 37.73 39.73 38.06 40.08 39.80 46.22 48.18 48.67 51.42 52.07 51.43 51.79

GFSGBSN_sfc_wetblb_132.txt.gz
Wetbulb
55.95 56.75 56.80 56.77 56.67 56.61 56.32 56.50 56.81 56.75 56.49 56.33 56.23 56.33 56.52 56.70 56.93 57.24 57.32 57.42 57.62 57.74 59.06 60.18 59.38 59.43 54.06 47.09 48.68 66.50 72.52 71.96 60.15 55.09 51.79 53.62 54.97 53.23 49.47 49.24 50.40 47.90 50.97 53.76 52.32 49.80 52.85
55.74 56.04 56.26 56.47 56.21 56.12 56.00 56.02 56.11 56.01 55.98 55.90 55.83 55.99 56.03 56.20 56.77 57.01 57.19 57.13 57.10 57.37 59.35 58.98 59.36 59.64 52.94 50.43 62.90 66.68 62.04 55.82 54.59 52.79 51.43 55.94 56.69 56.03 51.53 49.33 47.99 50.71 52.16 53.20 49.76 50.93 53.06
55.55 55.19 55.49 55.75 55.70 55.63 55.52 55.54 55.58 55.57 55.47 55.40 55.74 55.89 55.83 55.73 55.83 56.14 56.76 56.37 56.57 57.26 59.35 59.48 59.81 58.89 54.39 53.11 63.55 60.15 55.66 52.31 53.47 52.09 51.31 55.13 57.82 53.87 51.81 49.74 51.81 52.63 50.44 49.92 48.78 49.74 51.03
54.51 54.62 54.49 55.33 55.37 54.95 54.84 54.92 55.15 55.01 54.99 55.04 55.20 55.62 55.72 55.58 55.53 55.61 55.77 55.60 56.69 57.57 59.58 60.08 60.24 54.68 48.74 60.70 59.33 57.34 53.24 51.89 52.87 52.32 53.35 56.17 57.16 53.50 49.88 51.95 51.34 48.52 45.73 42.67 47.84 50.07 50.20
54.19 54.06 54.20 54.74 54.63 54.39 54.37 54.34 54.50 54.53 54.79 55.25 55.35 55.27 55.23 55.19 55.29 55.39 55.08 55.47 57.69 59.58 60.17 60.62 53.84 52.73 52.86 62.72 56.69 57.07 53.95 53.14 53.81 52.77 52.60 57.91 53.55 49.27 50.80 47.33 44.81 44.11 41.42 43.38 47.00 50.19 51.12
53.88 53.81 53.87 54.07 54.20 54.06 53.87 53.82 53.98 54.32 54.76 54.84 54.90 54.66 54.62 54.68 54.78 54.67 54.35 56.78 60.83 59.66 59.46 59.84 59.51 52.00 56.39 56.16 58.47 57.19 56.24 56.53 55.49 54.49 54.42 52.67 48.24 45.73 44.82 44.58 39.99 41.46 41.76 41.55 44.06 47.13 50.19
53.45 53.40 53.42 54.02 53.97 53.75 53.62 53.77 53.87 54.09 54.50 54.39 54.35 54.37 54.33 54.29 54.21 53.86 52.15 52.66 47.83 48.20 54.01 47.35 46.58 52.49 55.95 58.71 58.61 56.28 57.06 56.45 55.18 52.86 47.38 49.15 45.90 43.76 46.33 46.38 46.99 46.13 44.50 43.48 46.03 48.53 49.92
53.09 53.19 53.52 53.78 53.75 53.59 53.77 54.05 54.19 54.21 54.19 54.23 53.96 53.90 53.92 53.73 53.32 53.39 50.18 49.98 50.73 50.49 47.17 52.73 54.23 54.66 57.03 56.90 52.40 54.64 56.79 51.79 50.89 47.28 48.41 46.41 44.33 49.04 49.88 48.90 47.37 46.19 43.97 43.48 46.75 49.35 48.66
53.37 53.35 53.32 53.52 54.12 54.42 54.29 54.15 54.02 53.96 53.70 53.55 53.45 53.45 53.20 52.89 52.32 50.71 46.81 51.42 52.29 49.47 45.60 50.16 53.40 53.45 53.77 55.70 53.04 52.79 55.19 52.39 49.69 47.56 46.53 43.85 46.66 50.74 50.53 47.94 46.44 42.57 42.10 43.61 44.94 47.17 47.97
52.85 53.65 54.09 53.82 54.14 54.34 54.19 53.72 53.94 53.63 53.39 53.26 53.16 53.12 52.58 51.77 46.66 45.12 49.60 52.85 49.06 50.87 42.06 46.27 48.78 52.76 53.04 53.82 50.97 54.59 55.63 53.48 50.04 48.57 47.70 46.19 49.71 49.72 47.80 47.57 46.32 43.47 47.61 47.27 45.77 43.19 40.51
52.42 53.14 53.83 54.25 54.28 54.17 53.78 53.55 53.80 53.36 53.05 52.87 52.85 52.54 52.06 51.28 43.52 45.51 50.74 47.42 48.77 51.26 35.08 50.14 49.35 53.91 50.70 51.30 50.78 51.36 55.25 52.20 49.09 48.70 46.31 45.94 46.45 46.67 46.71 47.92 48.16 45.66 48.00 46.53 45.55 41.48 39.62
53.36 53.65 53.86 53.96 53.99 54.01 53.53 53.18 53.36 53.18 52.79 52.68 52.35 52.04 51.77 47.78 44.18 47.77 48.54 47.39 51.56 42.83 36.73 48.31 50.02 48.84 48.45 48.46 49.31 50.74 52.11 52.60 51.78 48.74 46.60 47.00 49.37 48.49 49.46 49.75 49.44 48.90 46.36 44.35 41.88 39.00 36.41
53.19 52.93 53.47 53.87 53.84 53.70 53.36 53.05 53.01 53.12 52.77 52.25 51.52 50.92 49.69 49.17 41.96 45.10 47.34 51.10 42.34 37.58 47.80 46.44 44.95 46.03 45.16 45.79 47.42 48.39 48.11 46.53 44.26 40.44 39.52 44.94 45.87 48.08 50.52 47.12 47.70 45.73 41.36 36.45 35.96 35.71 36.06
52.19 53.26 53.63 53.70 53.61 53.53 53.22 53.16 52.91 52.93 52.60 51.81 50.48 50.13 48.03 48.67 46.15 46.65 49.15 47.31 37.26 43.97 45.54 48.42 45.14 44.06 45.44 45.94 46.54 46.95 45.56 44.25 44.98 43.34 39.96 40.40 40.80 46.73 49.31 46.91 45.42 42.29 41.82 37.41 33.29 32.97 36.28
53.79 52.72 53.62 53.65 53.45 53.32 53.20 53.01 52.68 52.65 51.90 50.81 49.34 42.30 42.49 45.81 49.37 45.81 48.03 39.81 40.81 44.39 48.98 46.43 44.12 42.70 42.12 44.92 46.01 44.88 43.99 43.52 45.90 45.11 41.39 38.99 41.21 48.82 49.80 49.05 48.46 44.21 40.78 41.68 36.62 32.67 34.70
53.32 53.03 53.43 53.69 53.51 53.28 53.22 52.97 52.83 52.58 51.74 50.39 41.69 40.99 42.84 49.15 48.68 46.31 44.03 39.78 43.11 48.07 47.79 45.77 42.47 43.41 41.45 43.04 43.25 42.69 43.22 46.37 46.20 46.99 44.82 42.54 41.30 46.19 49.44 49.40 48.57 45.61 45.81 40.42 37.19 32.65 31.59
52.94 52.83 52.89 53.51 53.39 53.18 52.93 52.89 52.65 52.30 51.11 49.18 36.75 38.31 46.66 49.05 46.58 45.07 38.66 38.50 44.07 48.88 48.03 44.82 43.68 42.93 42.55 44.49 43.18 41.05 43.25 46.28 47.59 45.67 46.43 43.33 42.68 43.50 46.31 43.64 44.43 44.20 41.59 39.09 38.66 35.96 33.93
52.48 52.96 53.18 53.20 53.39 53.01 52.85 52.82 52.49 51.60 50.37 45.30 33.94 35.84 46.60 48.17 43.16 36.66 39.02 42.34 46.72 45.76 45.98 45.20 45.46 44.94 44.13 44.42 43.56 43.43 44.67 46.99 50.41 47.27 44.94 45.03 41.24 39.91 43.36 46.49 47.82 45.14 42.51 41.03 38.26 36.25 34.67
52.27 52.42 52.93 52.93 53.28 53.24 53.02 52.75 52.27 51.18 50.44 42.90 33.59 33.47 46.58 46.79 38.77 37.20 39.38 43.30 45.36 44.66 44.03 44.13 44.76 46.88 45.06 43.20 41.08 44.40 47.42 50.29 51.08 47.62 45.95 45.82 38.88 36.59 40.21 43.06 44.62 44.11 44.23 40.37 39.03 37.56 35.66
52.03 52.16 52.33 52.81 53.01 53.12 53.14 53.12 52.35 51.60 50.67 42.14 38.02 39.97 44.08 43.36 40.51 39.34 40.25 41.73 42.57 48.19 44.94 46.63 46.16 46.53 44.42 42.46 42.53 43.33 45.85 49.91 50.59 51.03 57.45 50.63 38.44 39.83 40.18 40.65 42.55 42.03 43.91 43.79 40.92 37.58 36.87
52.24 51.81 51.95 52.29 52.62 52.70 53.18 53.31 52.69 51.72 50.59 41.38 41.36 41.00 40.69 38.77 40.83 39.81 38.86 41.81 43.42 42.48 45.80 44.24 41.93 44.47 43.48 39.72 41.01 42.24 45.26 46.35 49.12 53.38 46.15 45.02 40.99 41.57 39.97 43.98 43.68 43.48 44.27 43.81 41.14 39.68 39.79
51.97 51.64 51.83 51.76 52.22 52.50 52.79 53.12 52.92 51.63 48.55 42.08 39.11 38.56 39.55 37.77 38.82 38.05 38.57 37.28 41.44 43.68 41.92 43.45 42.86 46.66 43.48 41.69 42.95 44.15 44.48 44.48 43.96 45.36 41.50 42.04 39.74 39.93 38.00 44.27 44.36 43.76 45.15 45.26 44.29 42.73 42.10
51.40 51.45 51.70 51.64 51.68 52.08 52.14 53.01 52.88 51.16 46.38 36.95 37.68 38.94 38.77 39.00 37.77 37.20 37.84 40.12 43.08 43.00 46.23 47.75 47.68 45.28 45.85 46.56 47.58 46.79 46.15 45.01 46.05 44.17 41.75 41.46 39.91 38.07 36.20 41.85 42.77 39.39 43.74 44.69 44.44 44.45 44.31
51.67 51.68 51.62 51.55 51.58 51.87 52.18 52.31 52.56 51.70 46.55 40.28 38.19 37.73 36.91 35.31 38.04 39.18 42.31 43.18 42.94 43.61 41.78 47.14 47.05 44.16 47.01 49.72 48.08 46.02 45.48 45.06 45.78 42.66 43.04 40.90 38.70 37.05 35.44 38.25 32.67 42.08 46.55 47.70 46.40 47.58 46.55
51.35 51.49 51.33 51.35 51.64 51.74 51.95 52.02 52.52 52.26 50.77 42.33 41.61 38.58 37.84 33.45 38.29 39.94 41.49 41.19 41.74 41.79 43.03 45.32 47.56 46.73 45.64 45.15 42.79 40.43 40.26 42.19 42.67 41.95 41.48 41.95 39.83 36.40 36.56 34.66 39.10 44.40 47.43 46.19 45.68 44.89 50.85
51.52 51.39 51.26 51.24 51.53 51.85 52.02 51.89 52.08 52.15 50.98 42.85 40.93 41.65 39.17 36.41 33.04 41.40 39.55 40.41 38.00 37.21 41.35 44.86 46.97 45.94 44.96 41.25 40.40 35.86 36.16 38.34 38.13 39.58 39.17 40.76 39.78 39.75 35.16 34.59 34.16 41.96 48.66 50.57 50.15 40.63 50.96
52.04 51.39 51.22 51.23 51.71 51.79 51.83 51.66 51.85 52.18 51.13 44.71 41.79 41.84 41.00 37.95 40.08 38.97 38.26 38.47 40.66 38.76 37.54 39.76 42.34 43.23 42.82 38.02 36.62 35.92 36.42 39.80 37.65 37.45 35.93 36.20 36.50 36.08 35.74 35.03 38.47 44.97 49.49 50.68 40.38 41.79 47.91
51.63 51.82 51.69 51.82 51.25 51.26 51.54 51.74 51.58 51.89 52.23 44.98 40.78 43.00 41.29 38.98 39.60 43.38 43.66 40.40 39.80 39.13 37.00 39.96 41.02 41.29 41.41 37.83 36.80 36.15 36.12 38.41 36.35 37.75 36.53 37.28 35.32 34.70 34.85 33.38 34.53 49.26 49.99 44.82 45.62 49.18 50.71
50.71 50.98 51.25 51.27 51.27 51.21 51.32 51.64 51.45 51.77 51.85 44.96 37.33 42.42 43.77 39.39 40.36 43.79 46.27 47.08 46.17 44.63 39.79 38.77 39.22 38.73 40.45 38.74 37.98 38.90 39.13 38.59 35.82 35.99 39.93 38.18 39.32 37.89 39.26 38.68 45.57 48.16 48.46 50.67 50.70 50.29 51.97

GFSGBSN_sfc_wetblb_135.txt.gz
Wetbulb
56.04 56.28 56.23 56.66 56.30 56.17 56.02 56.08 56.24 56.25 56.13 56.26 56.28 56.28 56.56 56.54 56.77 57.01 57.30 57.36 57.38 57.66 58.11 59.81 59.32 59.35 57.58 52.09 52.93 69.20 71.77 71.64 63.14 58.13 56.01 56.68 58.87 58.17 54.60 54.97 54.47 53.84 55.26 57.46 57.87 54.49 58.86
55.17 55.22 55.48 56.23 55.88 55.58 55.68 55.70 55.76 55.79 55.66 55.70 55.69 55.77 55.85 55.94 56.23 56.53 56.72 56.54 56.73 57.31 58.17 59.17 59.39 59.68 58.13 55.08 65.48 67.50 64.08 58.94 58.56 56.78 55.11 59.71 59.92 60.15 56.48 54.59 53.87 54.77 55.86 57.19 55.11 56.78 60.62
54.98 54.86 54.80 55.66 55.34 55.25 55.22 55.41 55.45 55.37 55.39 55.33 55.40 55.61 55.67 55.67 55.85 55.87 56.05 55.87 56.43 57.25 58.41 59.25 59.65 60.04 56.39 56.22 65.46 62.96 59.26 57.85 57.62 56.66 54.78 58.00 61.36 58.81 57.09 55.14 55.91 56.84 55.43 55.06 54.31 56.35 58.37
54.45 54.36 54.41 55.04 54.97 54.74 54.88 54.92 55.00 54.86 54.79 54.89 55.16 55.30 55.36 55.32 55.31 55.37 55.22 55.54 57.92 57.55 59.07 60.09 60.06 59.08 53.47 62.27 63.38 59.65 57.76 56.60 57.24 58.29 58.41 59.95 61.25 58.86 56.65 56.81 55.70 54.27 53.92 51.21 53.78 56.17 56.49
54.05 53.83 54.33 54.68 54.61 54.43 54.48 54.60 54.55 54.38 54.63 55.03 55.19 55.23 55.27 55.31 55.11 54.99 54.80 55.43 59.20 60.07 60.37 60.67 59.47 58.77 56.17 63.23 58.53 59.37 58.31 55.61 56.00 56.18 57.18 58.51 58.65 55.82 56.09 54.21 53.32 52.67 50.31 50.55 51.79 54.09 56.47
53.86 54.15 54.35 54.54 54.40 54.30 54.12 54.28 54.41 54.74 54.91 54.74 54.70 54.60 54.64 54.54 54.57 54.31 54.08 55.96 60.97 60.53 60.56 60.75 60.56 57.62 60.20 58.13 61.46 59.23 58.61 57.39 57.39 55.56 57.07 56.98 55.62 54.87 53.82 53.22 49.11 49.93 50.28 50.27 50.70 53.13 55.59
53.76 54.08 53.95 54.22 53.96 53.88 54.20 54.37 54.43 54.59 54.69 54.52 54.42 54.35 54.25 54.15 53.96 53.69 54.16 58.71 55.52 54.27 58.25 54.03 51.24 55.37 57.74 60.60 61.36 59.20 59.75 59.14 58.85 57.72 54.29 54.46 52.95 50.93 52.47 53.69 52.58 51.60 50.40 50.22 51.27 53.16 54.60
53.27 53.48 53.78 53.83 53.92 54.01 54.20 54.38 54.30 54.42 54.56 54.34 54.19 53.94 53.86 53.65 53.28 53.31 54.12 55.50 56.24 56.03 53.36 55.60 56.07 55.55 57.76 59.69 57.11 57.77 60.46 56.98 55.99 53.27 54.02 53.59 51.87 54.48 53.59 52.43 51.55 51.27 50.44 50.56 51.91 53.00 55.15
52.68 52.74 53.11 53.61 54.03 54.40 54.40 54.23 53.91 54.29 54.09 54.00 53.84 53.61 53.32 52.93 52.34 53.62 49.89 53.64 54.70 56.41 52.81 53.76 55.66 56.00 56.88 58.73 55.62 56.91 58.79 55.89 54.21 52.56 52.68 51.96 51.97 53.66 52.83 52.21 51.34 51.05 51.03 50.79 50.99 54.42 56.79
52.88 53.71 53.56 53.60 53.98 54.22 54.19 53.96 53.76 53.72 53.74 53.49 53.47 53.20 52.62 51.54 50.05 48.72 51.26 56.21 52.94 55.28 50.52 51.09 52.98 56.16 57.46 57.68 55.03 57.91 59.85 57.31 54.16 52.92 52.35 52.50 53.71 52.03 51.51 51.20 52.54 50.67 52.21 51.79 51.06 51.29 50.07
52.63 53.83 53.97 53.98 54.05 54.03 54.03 53.86 53.74 53.37 53.39 53.26 53.08 52.91 52.23 51.16 49.17 50.05 53.48 52.30 54.58 55.83 41.64 51.31 52.83 57.50 56.83 56.19 55.29 54.53 58.52 56.70 53.55 52.80 52.54 51.33 51.08 50.99 51.25 52.53 53.34 51.70 52.84 51.94 50.66 50.27 50.84
52.60 53.07 53.75 54.06 54.03 53.93 53.74 53.47 53.43 53.06 53.04 53.04 52.73 52.25 51.88 49.58 49.47 51.99 52.18 53.33 56.77 49.43 41.60 50.45 53.06 52.50 53.23 53.93 52.84 54.43 56.29 57.42 56.09 53.00 51.97 52.24 53.30 53.09 53.73 52.79 53.13 53.25 52.98 52.29 51.66 50.75 46.81
53.43 52.87 53.27 53.83 53.90 53.96 53.43 53.37 52.99 52.99 52.89 52.71 51.73 51.05 50.20 50.51 48.46 50.83 51.98 57.03 49.12 43.59 51.37 49.89 50.13 52.13 53.16 51.74 51.34 52.62 52.94 52.57 51.09 48.93 49.44 50.47 51.15 52.95 54.41 52.51 52.68 52.56 51.83 47.87 46.09 46.72 45.91
52.78 53.71 53.72 53.68 53.67 53.63 53.47 53.20 52.85 52.81 52.64 51.94 50.75 50.31 49.13 50.34 51.72 51.32 52.17 53.82 43.90 47.73 48.89 51.91 49.41 50.93 50.60 51.65 52.35 50.89 51.35 50.59 50.88 50.56 49.11 48.04 46.59 51.67 53.49 53.61 52.46 51.50 51.85 47.80 41.74 44.14 46.12
52.73 52.87 53.50 53.51 53.45 53.28 53.22 52.81 52.85 52.65 52.13 51.18 49.99 47.86 48.87 51.23 52.10 51.44 54.52 47.44 47.47 49.02 51.71 49.14 48.99 49.08 49.64 50.52 51.38 50.79 50.88 50.73 52.40 51.70 49.75 48.07 48.08 52.56 52.98 54.09 54.31 50.99 50.42 51.34 47.61 45.11 45.88
53.00 52.81 53.12 53.26 53.30 53.31 53.04 52.97 53.10 52.81 51.99 50.87 45.78 45.08 48.19 53.07 53.09 52.53 51.72 45.89 49.64 51.10 51.14 49.99 48.14 49.33 48.27 49.43 48.88 50.21 49.30 51.80 51.07 52.14 53.97 51.14 48.39 51.57 51.70 54.20 53.12 53.43 52.36 48.86 49.52 43.46 41.74
52.74 52.74 52.81 53.26 52.99 53.18 53.12 53.08 52.98 52.55 51.51 49.76 44.08 43.95 51.19 53.33 51.90 51.46 46.79 48.01 48.56 51.55 51.96 49.31 49.00 48.84 48.77 48.28 49.99 49.08 49.79 50.93 52.04 50.83 52.95 52.30 50.92 50.34 52.40 51.80 51.59 50.69 50.78 49.15 50.31 48.61 45.30
52.63 52.72 52.83 52.91 52.93 53.16 53.00 52.88 52.62 51.73 50.69 47.40 43.32 42.93 50.21 52.79 48.89 46.96 45.87 47.63 47.73 50.05 50.83 49.78 50.01 50.10 49.77 50.00 48.57 49.59 49.94 51.16 51.81 52.13 49.99 53.17 51.81 48.76 50.18 52.09 52.51 52.47 52.57 53.19 48.99 47.17 47.44
52.65 52.47 52.67 52.60 52.85 52.97 52.96 52.69 52.48 51.56 50.56 46.05 43.13 42.49 52.49 52.11 46.39 46.69 47.63 47.73 49.48 49.62 49.50 48.98 49.62 50.95 50.78 50.24 49.68 50.68 50.27 53.67 52.81 52.06 51.85 52.26 50.62 46.98 48.17 50.46 51.78 51.74 50.86 51.31 51.38 51.02 47.88
52.53 51.98 52.20 52.12 52.73 52.71 52.79 52.88 52.72 51.74 50.86 46.14 45.24 46.64 51.40 51.00 48.90 47.02 47.20 47.89 48.11 50.66 49.37 49.65 50.36 51.66 51.04 49.63 50.81 50.34 51.83 52.42 54.41 54.71 57.29 56.42 50.62 50.96 46.23 49.70 52.38 49.53 50.29 50.85 52.59 49.46 49.69
51.97 51.81 51.95 52.21 52.02 52.10 52.54 52.89 52.76 52.23 50.65 46.06 46.93 46.66 45.23 46.68 47.30 47.40 46.51 47.82 48.06 49.09 49.92 49.98 49.58 50.59 51.22 49.82 49.95 50.60 51.78 52.38 53.52 55.87 52.69 55.24 52.21 49.92 49.02 49.56 50.28 50.94 50.26 49.95 50.67 51.64 49.53
51.71 51.75 51.93 51.69 51.70 51.75 52.20 52.64 52.59 51.77 48.80 46.07 43.71 44.13 46.23 45.38 44.32 44.90 44.25 46.54 46.73 47.73 48.51 48.56 49.37 50.03 50.71 51.07 52.79 51.08 52.80 53.07 53.40 52.56 52.76 51.04 50.58 50.33 48.07 49.00 49.56 48.58 50.11 50.76 50.15 48.90 49.02
51.34 51.72 51.40 51.39 51.58 51.58 51.81 52.35 52.45 51.37 48.23 43.51 43.43 44.56 44.20 43.35 44.53 44.67 45.88 45.70 46.63 47.61 50.59 50.94 51.22 51.19 50.11 51.47 53.18 53.48 53.70 54.03 54.97 54.47 52.46 52.66 50.67 50.00 47.36 48.38 48.80 46.40 49.83 50.39 51.02 51.50 51.66
51.79 51.79 51.20 51.35 51.32 51.39 51.66 52.08 52.30 51.72 47.96 45.98 43.83 42.96 43.12 42.84 44.70 45.19 44.87 45.58 46.07 47.15 47.73 50.03 51.65 51.38 51.11 53.26 53.55 54.26 53.64 53.09 53.39 51.51 53.13 51.33 51.22 50.31 47.02 48.12 42.06 50.53 51.92 52.83 51.79 52.46 53.25
51.66 51.35 51.35 51.24 51.18 51.37 51.79 52.00 52.08 52.00 50.24 48.37 45.71 42.84 43.18 40.74 43.54 43.79 44.58 45.27 47.20 47.50 47.40 48.98 50.82 51.25 51.83 52.43 51.77 50.64 50.42 50.81 49.67 49.91 51.31 52.17 52.08 46.89 46.82 46.06 47.28 49.30 51.49 50.95 50.85 51.68 55.17
51.31 51.47 51.41 51.20 51.14 51.28 51.91 51.83 51.74 52.01 50.74 48.87 46.41 45.66 43.51 41.98 40.15 43.99 44.31 44.74 45.56 46.17 48.03 49.60 51.68 52.45 51.66 51.98 50.27 47.02 45.09 48.57 47.15 47.68 49.40 50.76 53.03 51.07 46.56 44.20 42.18 50.53 51.65 54.82 54.14 47.88 54.83
51.65 51.35 51.62 51.48 51.31 51.56 51.52 51.64 51.51 51.81 50.91 49.40 46.79 45.97 44.06 41.97 45.65 45.10 44.09 45.00 46.75 45.74 45.83 46.97 47.67 50.00 51.02 50.38 48.01 46.50 46.28 48.03 45.85 46.53 46.96 47.97 48.48 47.76 46.94 46.07 47.58 51.06 53.57 54.49 46.83 49.23 56.32
50.67 50.85 50.93 51.40 51.50 51.01 50.90 51.30 51.39 51.56 51.94 48.79 45.96 47.32 44.22 42.27 44.39 46.15 47.04 45.64 45.69 46.71 45.21 46.22 47.96 49.15 50.92 48.29 47.91 46.91 47.12 47.45 46.94 47.99 47.49 48.03 47.01 45.89 45.26 44.13 42.49 53.33 53.55 50.29 52.85 55.77 56.71
49.94 50.03 50.43 50.40 50.83 51.20 51.45 51.33 51.54 51.28 51.56 46.89 43.52 46.43 47.16 42.71 44.22 46.87 48.39 49.45 49.57 48.46 46.39 46.37 45.76 46.04 47.88 48.25 47.77 47.86 47.00 47.06 46.43 44.82 48.43 45.91 49.16 48.57 48.83 48.90 53.66 53.88 52.95 54.34 55.21 54.73 56.10

GFSGBSN_sfc_wetblb_138.txt.gz
Wetbulb
55.87 55.86 56.02 56.39 56.05 56.00 56.04 56.17 56.64 56.64 56.42 56.29 56.29 56.22 56.43 56.53 56.88 57.09 57.20 57.15 57.32 57.53 58.16 59.74 59.94 59.97 61.42 57.66 57.90 69.64 71.84 71.66 65.34 60.36 58.21 57.75 59.77 60.45 57.68 57.93 58.76 57.82 58.39 59.25 58.49 57.56 59.73
55.47 55.35 55.80 55.86 55.79 55.72 55.69 55.90 55.98 56.12 56.23 56.08 55.91 56.06 56.18 56.22 56.64 56.75 56.89 56.67 56.77 57.37 58.08 59.55 59.52 60.03 61.99 55.73 67.34 66.88 62.93 62.46 60.83 59.61 58.48 60.18 61.22 61.49 58.47 57.86 58.14 58.70 58.96 58.89 57.66 60.42 62.51
54.87 55.08 55.65 55.65 55.48 55.45 55.36 55.42 55.52 55.45 55.56 55.71 55.85 56.04 56.08 56.03 55.92 56.08 56.28 55.92 56.86 58.49 58.15 59.51 60.01 62.42 59.68 58.79 66.50 63.47 60.26 59.24 60.75 59.95 57.48 63.02 63.14 60.73 59.89 58.01 59.30 59.46 57.76 57.88 57.38 59.55 61.66
54.81 55.07 55.23 55.25 55.20 55.04 55.10 55.06 55.16 55.04 55.21 55.47 55.89 55.93 55.81 55.67 55.59 55.41 55.22 55.38 58.24 58.08 59.24 60.30 60.50 62.76 56.97 64.34 67.21 60.77 61.39 59.83 60.75 60.64 59.35 62.81 63.56 61.24 60.05 60.04 59.10 57.86 57.65 54.50 56.68 58.78 61.21
54.43 54.70 54.88 54.94 54.85 54.71 54.59 54.55 54.36 54.63 55.33 55.42 55.30 55.34 55.27 55.33 55.40 55.21 54.76 55.12 59.18 60.15 60.44 61.04 64.07 62.39 58.18 63.03 61.29 61.31 61.52 58.72 59.51 59.80 61.65 60.97 61.99 59.99 59.08 57.32 55.73 56.34 53.04 53.44 54.33 58.19 58.92
54.18 54.18 54.58 54.88 54.91 54.58 54.70 54.75 54.61 54.89 55.06 55.11 55.07 54.78 54.74 54.76 54.88 54.51 54.00 55.49 60.05 60.72 62.32 63.64 62.87 60.12 61.93 60.60 62.60 60.84 61.23 59.71 56.66 58.45 59.32 59.57 59.42 57.32 57.76 56.37 50.95 52.50 52.34 53.37 53.57 56.43 57.47
53.72 54.02 53.97 54.28 54.47 54.18 54.39 54.68 54.80 54.63 54.89 54.83 54.68 54.58 54.54 54.39 54.18 53.73 56.16 63.00 61.29 60.11 61.89 58.69 55.24 57.31 60.89 63.43 62.51 59.36 60.27 59.18 57.94 58.33 55.62 58.28 54.94 53.81 56.24 56.92 56.43 55.11 53.78 53.02 55.44 56.84 56.19
53.51 54.06 53.87 53.86 53.91 54.56 54.86 54.85 54.79 54.77 54.52 54.52 54.52 54.23 54.17 53.84 53.41 53.22 58.86 60.37 58.92 57.89 56.41 60.51 60.02 58.09 60.45 62.92 58.13 59.45 62.46 58.23 57.29 54.46 56.82 55.26 52.34 55.73 56.15 56.12 55.76 54.80 54.19 53.90 54.97 56.11 56.64
53.42 53.50 53.65 54.18 54.52 54.55 54.56 54.46 54.44 54.44 54.17 54.04 54.02 53.88 53.61 53.22 52.52 56.61 54.61 55.47 60.88 58.73 57.14 57.54 58.66 58.21 59.45 60.89 58.01 58.80 61.36 59.38 56.64 55.11 55.04 53.46 55.22 57.73 56.21 55.35 54.65 55.35 54.46 54.51 53.98 55.72 57.15
53.49 53.25 53.78 54.39 54.29 54.40 54.42 54.34 54.29 54.25 53.78 53.69 53.57 53.49 53.03 51.72 53.32 55.43 54.46 61.23 58.01 58.31 53.88 54.69 55.44 58.28 59.32 60.32 56.62 61.96 62.44 59.10 56.75 54.90 55.41 55.59 56.94 54.62 54.59 54.56 55.96 53.52 55.64 54.91 54.39 54.49 51.39
53.93 53.55 53.54 54.24 54.10 54.24 54.27 54.23 54.15 53.66 53.41 53.38 53.38 53.10 52.56 51.76 54.29 53.48 57.65 56.49 60.36 59.81 45.12 54.59 55.65 61.50 60.52 57.68 58.26 57.85 62.56 59.69 55.90 55.85 56.53 54.61 54.94 54.43 54.14 55.09 56.53 54.66 55.90 54.91 54.56 53.92 53.65
53.67 53.95 54.00 53.84 53.56 54.11 54.02 53.78 53.69 53.34 53.24 53.24 52.79 52.62 52.21 55.01 55.50 56.38 56.67 56.64 60.11 52.14 44.54 52.17 55.35 54.86 56.16 57.12 56.81 58.01 58.71 60.82 59.44 56.38 57.08 55.29 56.51 56.06 56.45 56.49 56.82 57.16 56.13 55.67 55.14 53.66 49.03
53.08 53.51 53.60 53.62 53.78 53.86 53.75 53.94 53.10 53.30 53.28 52.70 52.00 51.37 51.54 54.67 53.72 55.67 56.67 59.37 51.90 47.47 53.80 52.12 52.28 54.78 55.35 54.70 54.74 55.86 55.50 55.26 53.70 51.89 52.18 54.39 54.38 56.05 57.50 55.08 56.65 56.43 54.16 49.48 48.26 48.23 49.13
53.30 53.54 53.55 53.97 53.73 53.61 53.45 53.65 53.32 53.26 53.10 52.19 51.18 50.67 54.30 54.98 58.71 56.76 54.38 55.96 47.56 50.84 51.66 54.42 53.78 54.30 53.02 55.30 54.44 54.65 54.70 53.46 56.11 55.10 53.08 51.14 49.34 54.37 56.96 56.13 54.48 54.70 54.24 50.08 44.77 46.74 49.31
53.31 53.09 53.53 53.55 53.61 53.30 53.34 53.41 53.14 53.14 52.54 51.49 50.23 55.61 54.45 57.81 57.27 56.61 51.30 49.86 50.64 52.80 53.59 52.94 53.07 51.76 52.67 54.56 54.35 53.58 53.96 53.77 55.42 55.83 52.71 51.66 51.27 55.97 56.46 57.19 57.02 54.55 52.12 55.54 51.08 52.70 48.88
53.51 53.17 52.88 53.13 53.34 53.26 53.26 53.26 53.30 53.12 52.34 50.94 51.00 51.99 52.54 57.86 58.64 54.88 50.03 47.62 53.23 55.12 54.83 53.19 51.14 53.28 50.88 52.90 52.41 53.11 53.00 55.46 54.68 56.43 57.43 54.77 51.20 54.86 54.73 56.79 56.18 55.90 57.60 51.15 52.20 46.16 45.38
53.52 53.21 52.85 52.68 52.99 53.12 53.18 52.96 52.94 52.86 51.90 50.74 51.64 48.99 56.06 58.63 56.88 51.68 46.18 49.29 52.88 55.78 55.94 52.95 52.58 52.82 53.34 52.61 53.25 52.86 53.25 54.55 56.01 55.68 57.11 55.45 53.86 53.32 55.18 54.02 53.38 53.84 53.37 54.34 54.02 52.39 47.94
53.36 53.16 52.78 52.49 52.46 52.97 53.04 52.85 52.65 52.16 50.87 50.55 51.55 47.74 56.98 57.67 49.37 48.51 47.05 50.46 50.84 52.87 55.21 54.28 52.96 53.77 53.73 54.22 53.23 53.23 52.92 54.83 56.41 56.68 53.68 56.19 53.83 52.06 52.18 55.91 56.61 56.46 54.97 55.21 50.64 51.14 51.85
52.56 52.79 52.55 52.31 52.38 52.95 52.99 52.71 52.41 51.79 50.84 49.39 48.76 49.67 58.52 56.70 47.56 47.25 49.88 49.74 52.09 51.25 52.44 52.77 52.49 53.64 55.20 54.04 52.65 54.09 54.32 56.31 55.62 55.76 55.21 56.21 52.61 49.83 51.03 53.69 55.41 54.30 55.69 56.29 56.06 55.68 52.01
52.03 52.56 52.25 51.95 52.13 52.70 52.68 52.71 52.45 52.09 51.42 49.54 49.55 49.13 53.80 53.81 54.57 52.31 48.32 48.87 48.44 51.60 51.47 52.43 52.37 54.53 54.13 53.32 55.85 54.36 54.12 55.39 56.34 56.14 59.40 59.68 54.22 52.65 49.44 51.99 54.50 53.09 53.97 55.34 54.99 51.75 52.13
52.44 52.25 52.01 52.03 52.07 52.39 52.33 52.74 52.63 52.35 51.43 50.01 52.01 51.12 51.25 50.43 50.66 52.58 52.39 50.73 48.50 48.43 52.26 53.12 51.21 51.39 53.46 53.04 53.53 53.80 55.25 55.74 56.76 56.99 56.98 56.83 53.63 54.74 54.18 53.91 54.11 53.62 53.46 54.05 53.53 54.19 51.74
51.80 52.49 52.24 52.30 52.19 52.04 51.89 52.47 52.64 52.17 50.55 49.66 47.65 49.07 53.15 50.85 51.77 51.33 48.51 51.17 50.18 50.07 51.91 50.82 51.19 51.46 51.94 53.90 55.02 53.74 56.03 56.74 55.87 57.05 56.83 57.90 55.44 56.35 52.64 53.41 53.19 51.62 53.21 53.88 54.41 54.35 54.63
51.75 52.15 51.90 51.98 52.02 51.56 51.72 52.25 52.56 51.50 49.52 49.17 51.39 51.57 49.21 48.44 50.91 50.20 51.00 51.48 51.54 52.59 54.02 54.86 54.19 54.12 53.09 54.04 56.69 57.89 58.93 59.02 59.51 57.98 57.60 56.91 56.63 54.88 51.15 53.27 52.41 50.35 53.26 54.08 55.08 56.13 55.53
52.14 52.14 51.96 51.58 51.66 51.49 51.62 51.93 52.58 51.79 49.18 49.96 49.87 48.38 47.42 44.82 49.03 50.86 49.60 50.43 51.37 52.24 52.35 54.34 55.62 55.42 55.72 57.86 57.72 58.06 57.75 58.35 58.81 58.34 59.90 58.01 57.79 55.87 51.41 53.12 45.87 54.08 57.21 56.42 55.03 55.89 57.05
51.64 51.77 51.51 51.62 51.47 51.43 51.47 51.89 52.29 52.11 51.05 50.45 51.26 48.83 48.20 44.75 48.12 49.01 49.50 50.37 51.57 52.79 51.80 53.50 54.73 55.82 57.46 57.11 55.41 53.76 53.32 54.45 54.41 56.21 57.18 58.82 57.57 52.63 49.89 49.81 52.21 52.83 54.54 54.25 54.16 54.33 57.69
51.89 51.68 51.41 51.22 51.35 51.47 51.64 51.93 51.83 52.06 51.40 50.15 49.53 51.12 48.87 46.18 45.63 47.47 48.12 49.62 51.15 51.75 52.28 53.78 55.99 58.34 56.99 56.14 54.14 50.12 47.77 50.85 50.69 51.98 56.82 56.61 59.24 53.59 51.67 47.02 45.40 53.59 56.78 57.90 57.44 51.28 58.49
50.73 50.94 50.80 51.16 51.41 51.47 51.72 51.66 51.81 51.66 51.52 50.15 50.09 51.24 48.53 46.31 50.38 49.01 48.13 49.53 51.31 51.54 52.93 53.79 53.46 55.66 56.59 54.34 51.33 49.95 49.17 53.30 49.51 49.89 51.07 52.44 53.71 50.56 50.55 49.15 51.04 56.25 57.42 58.08 49.75 52.68 58.99
50.01 49.91 50.35 50.88 50.94 51.11 50.97 51.27 51.33 51.56 51.60 50.65 49.82 51.64 47.58 46.79 48.98 49.49 49.76 48.95 50.21 51.88 50.75 51.88 52.66 54.10 54.81 52.35 51.94 51.95 51.05 52.62 52.02 53.70 53.07 52.09 50.96 49.82 51.38 49.30 47.17 58.13 56.67 53.53 58.55 60.12 59.98
49.48 49.66 49.89 49.99 50.15 50.78 50.89 51.41 51.46 51.62 51.56 49.62 47.59 51.28 51.07 46.00 48.30 51.61 51.61 52.44 50.62 50.88 49.78 52.63 51.18 52.01 53.77 53.49 54.50 55.66 51.86 53.30 53.33 48.79 53.97 51.03 54.97 53.04 51.90 54.32 58.32 59.18 58.97 60.25 60.89 60.12 59.75

GFSGBSN_sfc_wetblb_144.txt.gz
Wetbulb
56.57 56.45 56.61 56.65 57.04 57.01 56.92 57.11 56.95 56.78 56.72 56.90 56.80 56.74 56.66 56.85 57.01 57.22 57.26 57.36 57.24 57.76 58.75 59.25 59.91 60.97 61.11 59.37 59.68 67.18 72.08 70.54 60.41 60.56 61.30 61.31 57.97 59.70 59.40 60.21 60.31 58.86 57.88 58.95 59.31 61.74 62.43
55.74 55.92 56.08 56.37 56.56 56.41 56.32 56.46 56.67 56.68 56.45 56.58 56.58 56.71 56.95 56.83 56.99 57.22 57.34 57.19 56.97 57.45 59.45 60.06 60.49 60.59 60.17 58.33 68.23 67.38 62.58 58.89 58.94 59.74 62.53 59.75 58.86 61.81 61.71 59.93 58.96 59.93 58.80 58.50 58.86 60.59 62.44
55.59 55.75 55.66 55.76 55.72 55.52 55.53 55.76 55.74 55.74 56.10 56.27 56.18 56.26 56.32 56.52 56.55 56.67 56.91 56.52 56.29 57.53 60.39 60.08 61.02 61.80 61.90 60.53 67.46 67.16 62.50 58.76 60.37 60.75 59.83 60.66 61.18 61.46 62.61 59.30 61.55 59.16 56.89 57.07 58.43 59.73 61.12
55.12 55.48 55.45 55.53 55.27 55.29 55.18 55.28 55.44 55.42 55.91 56.12 55.78 55.75 55.95 56.05 56.15 56.37 56.21 55.94 56.10 58.01 61.21 60.78 61.21 62.78 60.36 65.97 67.67 62.86 62.69 60.02 61.78 62.03 61.01 61.97 62.31 63.00 62.07 63.10 59.74 57.53 57.89 52.78 57.50 59.34 61.45
54.51 54.88 55.08 55.22 55.68 55.48 55.16 55.26 55.33 55.82 55.86 55.53 55.42 55.48 55.50 55.49 55.57 55.73 55.26 55.17 56.47 59.38 62.06 61.74 61.68 62.17 59.03 67.06 63.56 61.67 62.09 59.11 60.32 61.11 61.63 62.05 62.46 61.29 61.82 58.46 55.53 56.42 52.91 53.83 54.88 59.37 59.87
54.57 54.81 54.60 54.77 54.97 55.01 55.27 55.54 55.77 55.76 55.64 55.18 55.07 54.93 54.94 55.11 55.15 54.81 54.59 55.31 59.85 59.53 62.63 64.11 63.86 60.98 61.46 60.91 63.36 61.22 61.69 60.58 58.58 58.76 58.15 58.70 58.87 57.45 58.40 56.53 51.35 52.88 53.53 54.36 53.95 56.63 57.92
54.13 54.38 54.20 54.28 54.63 54.78 54.97 55.26 55.38 55.41 55.35 54.99 54.78 54.68 54.61 54.43 54.51 54.34 54.97 61.37 62.70 59.93 63.17 59.98 58.44 59.06 61.48 64.09 64.75 60.27 61.23 59.45 58.57 57.24 53.35 57.33 53.75 53.23 56.34 57.86 57.85 56.98 55.26 54.93 55.84 57.33 56.67
54.12 53.92 53.98 54.34 54.83 55.27 55.14 55.01 54.99 55.00 55.07 54.80 54.84 54.57 54.43 54.06 53.83 53.67 54.49 57.76 62.13 61.85 56.56 63.20 62.46 60.84 62.68 64.07 59.40 59.18 61.54 56.48 55.54 52.44 55.16 54.73 51.88 55.96 58.04 58.29 57.04 56.30 54.98 53.77 56.17 57.32 56.23
53.80 54.62 54.74 55.07 54.97 55.00 54.75 54.72 54.70 54.69 54.72 54.55 54.49 54.28 54.04 53.50 53.03 56.60 58.78 59.76 61.13 61.65 56.32 57.64 60.72 60.47 59.55 63.07 58.69 57.56 58.97 57.06 54.21 52.73 53.43 53.10 54.52 57.33 56.32 56.04 55.45 55.29 54.29 54.24 54.22 56.32 56.49
54.09 54.56 54.46 54.53 54.66 54.61 54.40 54.39 54.16 54.43 54.28 54.20 54.20 54.16 53.50 52.13 53.46 56.52 56.18 62.75 62.71 62.91 52.32 53.92 56.35 59.62 59.81 61.73 57.65 61.03 60.22 57.06 55.85 52.44 54.01 54.30 57.88 55.88 55.21 54.33 55.25 52.53 56.56 56.41 55.53 54.06 50.21
54.52 54.46 54.45 54.38 54.22 54.27 54.26 54.05 53.79 53.91 53.89 53.83 53.79 53.73 53.05 51.90 52.80 54.34 57.58 60.35 62.42 61.18 43.91 54.43 56.41 62.95 60.86 57.68 58.87 59.16 60.72 57.34 55.37 54.28 54.83 53.86 54.97 55.20 54.05 54.56 56.13 54.61 57.59 56.36 55.91 54.38 53.69
54.96 54.76 54.27 54.22 54.11 53.92 53.79 53.69 53.51 53.61 53.52 53.48 53.40 53.07 52.74 54.96 55.96 58.59 60.08 59.16 59.24 51.35 44.17 53.23 57.14 56.20 55.90 56.80 58.04 59.36 57.60 58.58 59.54 57.18 56.73 56.08 58.68 57.87 56.97 57.14 57.33 58.34 56.69 56.31 55.27 53.87 49.30
55.36 55.15 54.82 54.65 54.22 53.80 53.43 53.34 53.18 53.21 53.38 53.32 52.86 51.91 51.63 54.21 52.75 57.73 58.54 55.35 49.33 46.12 54.09 52.34 53.87 55.49 54.72 54.32 56.01 57.04 55.63 54.18 53.38 51.99 52.58 55.15 55.57 58.06 57.88 55.19 57.49 56.70 54.60 49.45 47.64 47.57 47.04
55.56 55.18 54.90 54.72 54.00 53.68 53.22 53.18 52.95 52.90 53.03 52.84 51.80 50.97 54.77 56.38 57.61 56.69 55.51 51.18 45.12 50.79 51.55 55.71 55.53 55.24 52.59 54.57 55.40 55.71 55.55 53.16 55.75 55.28 53.45 51.37 49.91 56.07 57.87 55.94 54.96 54.71 54.35 49.63 46.76 47.20 49.29
55.08 55.19 55.01 54.79 54.15 53.37 53.10 52.78 52.86 52.88 52.62 52.07 50.75 55.83 55.73 59.41 59.86 58.09 51.98 44.67 47.58 51.40 54.32 53.56 55.12 52.86 52.64 53.80 54.76 54.92 54.76 54.15 55.23 56.27 53.25 52.16 51.53 57.39 56.87 57.70 57.66 54.93 52.64 55.48 51.99 53.12 50.96
54.77 54.91 54.83 54.54 53.61 53.36 53.08 52.81 52.82 52.88 52.39 51.34 50.85 53.11 55.34 58.77 60.08 55.55 49.25 44.86 49.79 54.04 55.25 56.05 52.05 54.29 51.57 52.20 52.37 53.36 53.96 56.44 55.53 56.88 58.19 55.79 51.89 56.03 56.31 57.42 57.59 56.42 57.23 51.00 52.20 48.51 47.54
54.20 54.74 54.50 54.16 53.53 53.18 52.99 52.59 52.70 52.64 51.93 50.87 52.60 52.30 57.95 58.79 59.00 51.55 44.68 46.93 49.66 53.44 55.27 54.13 53.77 53.25 53.87 53.14 53.05 52.78 53.51 55.91 56.89 56.71 57.83 56.39 54.93 54.77 56.38 54.14 53.16 54.34 53.79 55.15 54.07 52.38 48.73
53.68 53.95 53.94 53.75 53.26 53.11 52.85 52.61 52.33 52.10 51.26 50.97 51.22 47.44 58.34 59.60 51.19 51.02 46.41 48.37 50.20 51.95 53.94 53.90 56.40 55.41 54.36 54.93 53.68 52.88 52.97 55.54 58.06 57.51 54.76 56.65 54.69 52.70 53.74 56.91 57.69 56.52 55.05 55.66 51.68 52.66 53.06
53.68 53.88 53.66 53.47 53.34 53.14 52.76 52.45 52.31 51.94 51.66 49.69 47.85 50.23 57.35 58.64 47.40 48.30 50.30 48.99 50.19 50.21 51.65 52.39 54.19 56.25 56.58 54.59 53.60 54.64 54.72 58.06 58.24 57.22 56.38 57.90 54.08 50.36 52.27 54.68 56.40 54.01 55.27 55.33 55.11 54.99 53.43
53.00 53.53 53.63 53.47 53.40 53.30 53.07 52.72 52.59 52.26 52.29 50.40 47.90 46.98 51.87 54.12 54.34 51.31 50.01 49.02 48.62 51.78 51.39 53.15 53.81 56.35 54.87 53.84 56.30 55.51 54.85 57.33 58.61 57.88 63.45 60.81 54.87 54.33 49.75 53.74 55.04 53.56 53.54 54.88 54.53 52.50 52.50
52.48 53.16 53.53 53.49 53.47 53.49 53.36 53.07 52.88 52.54 52.41 50.17 48.67 47.66 52.06 49.17 50.29 52.08 51.42 51.34 50.33 49.01 51.89 52.86 52.41 53.38 53.33 52.13 53.54 54.32 56.56 57.18 57.78 62.51 59.19 57.12 55.61 55.48 53.78 54.88 55.80 54.52 53.71 53.84 53.48 54.55 52.68
52.20 52.62 53.36 53.21 53.50 53.44 53.48 53.21 52.99 52.50 51.95 48.81 45.69 48.20 50.93 49.24 51.97 52.72 51.57 49.65 50.27 52.22 51.26 50.38 51.19 53.09 53.55 53.19 54.20 53.68 56.24 57.26 56.56 57.31 56.45 56.83 55.34 56.06 52.80 54.29 54.29 53.82 55.00 54.61 53.80 54.23 54.70
51.55 51.89 52.70 52.89 53.07 53.32 53.06 53.10 52.65 52.27 51.03 48.79 53.13 53.42 49.77 46.96 48.29 48.37 51.00 52.63 50.32 53.49 54.91 53.43 52.93 52.65 52.30 53.97 56.50 58.15 59.17 59.83 59.25 57.84 57.81 56.73 56.00 55.33 51.31 53.62 53.31 51.03 54.40 54.75 55.49 56.35 55.32
51.84 52.22 52.41 52.47 52.46 52.29 52.41 52.66 52.57 52.64 52.04 50.22 50.63 50.30 46.73 43.61 46.43 47.62 49.85 52.86 53.17 53.22 53.30 54.62 54.37 54.02 55.65 60.01 59.66 58.48 58.52 59.45 59.46 59.06 58.51 58.16 59.85 56.56 51.31 54.80 47.39 54.54 57.83 57.08 55.54 56.51 57.64
51.65 52.18 51.95 51.95 51.96 52.01 52.00 52.20 52.53 52.80 52.54 50.23 51.20 49.54 47.28 43.56 47.32 48.45 49.74 50.56 53.87 55.23 54.33 54.84 57.36 58.72 61.95 59.30 54.96 53.44 52.74 55.52 56.75 58.16 58.69 58.31 58.33 52.87 51.15 50.39 53.52 54.94 57.54 56.73 55.44 55.57 58.83
50.77 51.04 51.21 51.19 51.57 52.04 52.01 52.04 52.32 52.61 52.59 50.88 50.78 52.52 49.66 44.62 45.37 49.66 49.40 51.97 51.56 53.16 54.15 55.17 59.57 61.33 59.60 56.37 53.31 51.27 47.75 52.23 52.38 55.56 61.39 58.79 60.08 55.35 53.50 48.98 47.96 56.30 60.22 60.75 59.98 53.96 60.13
50.20 50.54 50.71 50.75 50.66 51.19 51.75 51.84 51.99 52.17 52.11 51.23 50.22 52.25 48.94 44.63 48.22 49.90 49.00 48.47 53.08 53.50 53.31 55.26 56.35 56.37 58.02 53.68 50.51 49.08 48.81 53.79 51.15 52.06 54.21 54.91 55.97 53.54 53.70 51.43 53.35 59.96 59.75 60.75 52.01 55.34 62.01
49.55 49.77 50.02 50.03 50.34 50.49 50.96 51.41 51.59 51.70 52.40 51.14 49.29 52.83 48.52 44.99 47.27 50.23 51.90 50.07 51.40 52.49 50.64 55.55 55.33 55.04 54.45 50.82 50.19 50.16 49.82 52.43 53.58 56.75 56.45 54.21 52.86 52.03 54.33 52.17 49.88 61.08 59.08 55.74 62.64 65.59 63.27
49.32 49.50 49.25 49.28 49.79 50.15 50.49 50.73 51.30 51.56 52.23 51.22 47.09 52.15 52.55 46.30 46.24 50.72 50.97 52.33 52.20 53.08 52.08 53.17 54.08 56.46 56.41 53.72 52.86 53.52 51.52 53.02 54.55 51.13 58.88 53.39 56.75 54.60 56.12 55.47 63.03 63.91 64.28 66.31 66.03 64.90 63.97

GFSGBSN_sfc_wetblb_147.txt.gz
Wetbulb
56.67 56.58 56.58 56.57 56.96 56.91 56.83 57.03 57.11 56.91 56.95 56.50 56.29 56.24 56.47 56.63 56.81 57.06 57.23 57.48 57.51 57.40 57.83 59.52 60.18 61.01 58.18 55.03 57.11 65.78 72.79 71.83 62.45 56.72 55.46 56.56 58.20 54.73 51.84 55.57 57.78 56.25 54.45 56.32 56.38 62.92 62.15
56.06 56.21 56.28 56.24 56.22 56.30 56.38 56.56 56.74 56.66 56.63 56.34 56.44 56.42 56.40 56.42 56.79 57.00 57.08 57.21 57.11 57.09 57.90 60.98 60.09 60.96 55.94 53.42 65.67 66.01 61.49 59.10 56.24 54.22 56.11 57.26 57.73 55.86 54.79 56.27 55.03 56.26 55.71 54.92 54.86 61.73 62.81
55.37 55.66 55.89 56.02 56.32 55.61 55.49 55.57 55.80 56.04 56.46 56.25 56.08 56.18 56.04 56.24 56.34 56.61 56.87 56.78 56.45 56.94 58.13 60.89 60.53 60.49 58.09 54.51 66.31 63.30 59.08 53.95 54.78 54.56 56.49 60.37 59.59 53.99 54.26 56.22 59.34 56.21 52.34 53.59 54.14 58.07 62.06
55.29 55.40 55.44 55.63 55.95 55.54 55.17 55.01 55.17 55.49 56.08 56.04 55.81 55.85 55.89 55.85 56.05 56.20 56.15 55.93 55.89 56.80 58.75 61.45 61.03 58.84 55.19 63.55 63.44 63.26 59.23 55.03 55.08 56.17 56.80 59.21 57.63 54.27 57.22 59.40 57.91 53.24 50.26 45.72 53.89 56.70 62.23
55.06 55.17 55.40 55.53 56.05 55.57 55.08 54.96 54.99 55.62 55.85 55.75 55.44 55.62 55.46 55.48 55.40 55.37 55.08 55.05 56.71 58.06 60.50 61.50 57.41 55.86 55.15 66.14 61.88 59.86 59.10 55.51 55.07 56.55 57.02 60.34 56.00 53.98 57.24 53.65 50.98 50.64 46.78 49.87 51.46 57.67 60.57
54.93 54.66 54.54 55.03 54.75 54.99 55.22 55.45 55.43 55.48 55.38 55.23 55.13 55.10 55.08 55.02 54.90 54.69 54.61 55.17 59.76 58.79 60.39 62.46 61.84 55.15 59.68 59.46 60.89 59.78 58.79 57.91 55.80 54.72 54.83 54.35 53.99 51.14 51.80 49.49 45.22 47.58 49.12 49.82 50.05 54.54 58.41
54.55 54.33 54.29 54.51 54.45 54.95 55.41 55.23 55.12 55.02 55.05 54.97 54.92 54.82 54.72 54.74 54.51 54.28 52.10 52.75 56.28 54.90 57.73 56.18 55.58 58.62 59.30 61.87 62.80 57.67 57.36 55.90 55.03 52.77 48.20 51.90 48.43 46.61 50.59 53.43 54.83 54.36 53.74 51.16 52.70 54.57 53.94
54.14 54.27 54.36 54.00 54.85 55.09 55.07 54.94 54.65 54.61 54.62 54.64 54.64 54.61 54.47 54.39 53.87 53.52 51.33 51.22 54.97 55.82 51.15 59.77 60.43 58.83 59.84 61.09 58.08 57.18 57.54 52.21 51.71 47.74 50.55 48.64 46.89 51.84 54.87 55.25 54.58 53.78 51.54 51.71 53.55 54.08 53.43
54.88 55.11 54.90 54.79 54.78 54.61 54.58 54.49 54.24 54.40 54.20 54.11 54.21 54.08 54.04 53.75 52.91 52.95 53.91 55.18 59.02 58.54 49.45 54.94 57.31 59.52 60.21 59.57 57.69 55.62 55.57 53.87 50.85 48.88 49.05 46.82 50.26 54.44 53.73 52.61 52.20 51.11 49.05 50.01 50.53 52.78 52.03
55.46 55.38 54.98 54.89 54.76 54.51 54.22 53.98 54.00 54.03 53.93 53.65 53.79 53.79 53.52 52.58 51.38 50.82 50.43 55.95 57.77 58.72 46.30 50.78 52.49 56.00 59.04 59.08 56.35 60.02 57.53 54.80 51.95 48.87 49.99 48.93 52.83 52.93 52.13 51.68 51.87 45.59 53.99 53.84 52.50 49.07 44.57
56.18 55.69 55.32 55.06 54.83 54.54 54.33 53.92 53.62 53.56 53.30 53.34 53.52 53.46 52.97 52.33 47.91 49.49 53.61 56.39 57.93 54.83 38.27 53.14 52.96 59.48 58.87 55.49 57.44 57.92 58.46 54.47 50.47 50.11 49.04 47.95 50.63 50.76 51.55 51.89 52.96 49.97 53.82 52.57 53.28 49.30 46.97
56.12 55.94 55.71 55.25 55.02 54.80 54.26 53.60 53.41 53.31 53.08 53.07 53.09 52.78 52.86 50.91 50.34 53.15 55.81 55.58 54.83 44.62 40.63 50.30 53.38 53.25 54.14 54.73 55.79 57.29 55.13 55.46 54.67 51.38 50.99 50.33 54.53 53.15 52.67 55.09 54.18 54.66 51.94 51.91 49.64 45.98 41.20
55.90 55.83 55.54 55.40 55.03 54.66 54.11 53.32 53.05 52.87 52.86 52.68 52.33 51.66 51.05 51.61 47.27 52.70 52.55 51.51 41.18 40.24 52.13 48.83 50.15 52.78 52.97 51.99 52.18 54.19 51.83 49.96 47.63 44.09 46.11 51.26 51.78 53.76 55.34 51.90 53.18 51.55 48.84 41.98 40.47 39.91 40.30
55.13 55.02 55.06 55.14 54.98 54.20 53.73 53.32 52.99 52.86 52.62 52.10 51.23 51.05 51.75 53.49 51.83 51.74 50.99 45.48 38.38 47.66 48.01 52.97 52.78 52.51 50.53 52.31 51.67 52.91 51.18 48.40 50.03 48.87 47.40 46.39 45.77 52.21 55.14 51.43 49.43 49.41 47.50 42.82 38.53 39.11 43.49
54.82 54.85 54.81 54.86 54.59 53.96 53.24 53.16 52.84 52.45 52.12 51.47 50.46 51.33 51.12 54.11 55.21 54.09 47.61 39.21 41.85 47.60 51.22 50.09 51.12 49.68 49.47 51.67 51.29 51.55 51.22 49.84 50.61 50.98 46.37 46.14 47.58 54.90 55.51 53.98 52.51 49.98 47.29 50.32 44.44 45.24 43.65
54.85 54.54 54.34 54.45 54.26 53.63 53.38 53.19 52.89 52.59 52.01 50.95 47.87 48.81 50.78 55.07 57.58 52.98 45.22 40.80 44.41 50.31 51.51 51.35 47.50 50.50 48.51 49.89 49.31 50.05 50.31 53.39 52.74 53.64 53.69 49.69 45.90 52.61 54.94 53.83 53.49 50.47 53.19 45.86 43.70 38.83 38.25
54.60 54.31 54.00 53.98 53.75 53.55 53.28 53.11 52.62 52.26 51.84 50.78 48.25 47.32 54.17 58.64 57.38 49.12 40.64 42.59 45.98 49.29 50.39 48.73 47.76 47.98 49.93 50.92 50.47 49.09 50.42 53.35 55.32 54.16 54.14 52.11 47.81 50.20 52.79 49.41 47.99 48.23 47.26 48.80 46.09 44.59 40.30
53.96 54.12 54.08 53.67 53.61 53.52 53.32 52.99 52.47 51.82 50.91 49.52 46.92 42.69 54.47 55.94 48.14 47.95 43.49 45.25 47.17 47.38 49.89 49.39 49.59 48.76 47.90 50.90 51.14 49.95 49.55 52.66 56.50 55.93 51.57 53.04 47.54 46.28 49.19 53.50 54.37 51.65 48.77 48.72 44.26 43.40 45.11
52.87 53.57 53.59 53.55 53.59 53.53 53.24 53.09 52.62 51.73 51.53 47.66 43.18 45.44 52.96 52.99 43.76 45.11 48.40 47.54 47.43 46.56 47.03 47.10 47.24 49.81 50.79 49.47 49.46 52.85 53.37 56.01 55.88 54.89 52.76 52.77 49.13 44.53 45.96 49.44 51.91 50.11 50.36 48.98 49.77 48.00 43.30
52.70 52.81 53.22 53.53 53.57 53.46 53.44 53.38 52.83 52.28 52.09 48.64 43.65 41.73 49.08 50.09 49.89 48.32 46.84 47.55 47.15 50.13 48.22 48.71 48.07 49.53 49.05 49.66 51.71 50.43 52.03 55.47 56.73 55.79 61.44 57.99 48.88 45.89 44.55 46.99 49.67 48.46 50.61 50.27 47.06 42.87 43.60
52.41 52.55 53.01 53.03 53.07 53.34 53.46 53.48 53.24 52.69 52.30 48.28 44.95 42.71 47.53 42.73 44.98 46.01 47.95 48.82 47.30 47.25 49.66 49.07 46.98 47.74 47.33 46.66 49.99 49.52 52.02 53.77 56.48 59.25 59.27 54.02 46.77 49.09 49.62 51.55 52.11 51.54 51.09 50.83 47.26 47.68 45.98
51.93 51.68 52.35 52.55 52.90 53.28 53.44 53.46 53.17 52.38 51.45 46.15 40.76 43.00 46.86 44.75 45.93 45.95 46.04 47.09 49.61 49.92 48.98 48.78 46.57 48.27 48.65 46.68 50.65 49.54 51.28 51.52 53.51 56.44 54.03 52.68 47.41 50.17 48.19 51.96 51.26 50.33 53.22 52.12 51.33 50.74 49.68
51.55 51.41 51.60 52.09 52.86 53.15 53.22 53.24 52.90 52.08 50.60 45.49 48.51 48.30 45.38 43.77 44.00 43.15 44.37 46.54 47.27 49.71 50.97 51.20 50.98 48.94 48.20 49.57 53.55 52.67 53.65 53.61 53.25 52.27 52.96 50.47 48.44 47.89 44.60 50.55 50.06 47.64 50.06 52.40 52.14 52.46 50.71
51.19 51.15 51.36 51.95 52.70 52.84 52.89 52.99 52.74 52.51 51.53 49.00 47.51 45.80 42.17 39.39 42.19 42.97 45.34 47.17 47.35 48.58 47.76 51.76 51.97 51.98 52.22 54.77 56.81 54.61 53.30 52.06 54.03 55.17 55.56 52.12 50.56 49.14 44.29 45.86 40.28 49.07 54.48 55.46 54.33 54.26 56.45
50.75 50.52 51.26 51.49 51.72 52.03 52.17 52.70 52.74 52.66 52.13 48.91 48.80 45.43 42.86 38.65 42.64 43.09 45.57 45.05 46.91 49.95 51.37 52.35 54.37 58.12 57.91 54.17 51.00 48.60 48.13 49.26 51.55 54.75 55.39 52.76 51.63 46.45 43.80 43.44 47.23 51.42 53.67 54.37 52.63 53.30 58.94
50.45 50.69 50.79 51.05 51.09 50.96 51.58 52.12 52.47 52.24 51.78 49.40 48.24 49.61 44.72 40.42 40.38 45.42 43.32 44.65 44.01 45.85 49.30 53.88 57.16 58.09 56.76 52.84 49.60 45.00 42.82 46.40 47.59 51.68 53.26 53.82 52.94 49.68 45.69 42.27 41.77 49.72 57.40 58.52 57.20 47.89 58.56
50.11 50.09 50.15 50.39 50.37 50.81 50.94 51.43 51.94 51.98 51.58 49.55 47.69 49.96 45.53 40.67 44.30 45.27 41.69 41.57 46.19 45.71 47.38 51.39 50.18 54.36 55.14 49.46 46.87 44.99 44.30 49.75 46.02 47.17 49.78 49.75 49.39 46.49 46.36 44.00 47.59 54.47 57.61 59.22 47.80 49.62 59.68
49.54 49.75 49.54 49.84 49.69 49.96 50.28 50.82 51.19 51.83 52.14 49.84 47.14 50.17 45.66 42.52 43.63 46.07 45.78 42.70 44.48 44.47 42.50 46.51 48.14 52.14 51.19 47.27 47.37 47.03 46.20 47.59 47.08 50.75 52.16 48.63 47.61 45.93 48.55 46.43 44.16 59.59 56.17 52.33 56.28 58.85 60.42
48.91 48.54 48.70 49.05 49.26 49.43 49.77 50.24 50.86 51.13 51.59 51.08 44.82 49.77 50.21 44.62 44.12 48.80 48.57 48.97 47.29 46.90 45.19 46.70 46.28 49.90 52.31 49.86 49.83 49.98 47.44 48.27 47.20 43.91 53.64 49.96 51.85 50.38 51.48 52.55 58.67 61.27 60.46 61.33 60.96 58.97 58.89

GFSGBSN_sfc_wetblb_150.txt.gz
Wetbulb
56.02 56.33 56.52 56.34 56.44 56.39 56.27 56.51 56.64 56.79 56.29 55.98 56.15 56.00 56.28 56.28 56.51 56.74 57.00 57.12 57.42 57.18 57.31 58.32 60.42 60.41 57.23 52.12 53.51 63.27 73.20 72.75 64.96 56.47 53.72 53.09 54.96 55.37 51.36 51.41 53.74 52.51 53.78 61.22 60.86 61.84 61.28
56.02 55.70 55.85 55.94 56.10 55.78 55.51 55.68 55.94 56.10 56.32 56.02 55.75 55.85 56.10 55.97 56.11 56.74 56.92 57.11 57.13 56.96 57.22 58.51 60.90 60.77 53.26 49.23 61.37 64.94 61.52 57.58 54.89 53.07 52.51 53.91 55.15 56.76 51.99 51.26 50.58 54.90 54.63 59.80 61.22 62.62 63.31
55.46 55.44 55.47 55.61 55.64 55.32 55.09 55.22 55.11 55.22 55.42 55.73 56.04 55.91 56.09 56.28 56.00 56.17 56.49 56.53 56.59 56.71 57.07 58.79 60.73 59.40 56.27 50.88 62.53 61.81 57.78 53.76 53.28 51.65 52.64 55.58 56.23 54.23 51.83 50.21 56.68 56.52 50.90 59.57 60.80 61.06 61.09
55.14 55.12 55.09 55.34 55.27 55.17 55.04 55.00 54.96 54.78 55.08 55.77 55.75 55.71 55.64 55.80 56.11 56.19 56.09 55.76 56.06 56.87 57.85 60.32 61.20 57.48 49.81 61.29 60.17 61.25 56.14 52.28 52.85 51.45 53.44 56.21 56.90 53.22 50.58 54.77 56.04 51.96 48.66 46.23 55.46 61.32 61.90
54.69 54.88 54.82 54.76 54.81 54.86 54.80 54.88 54.87 54.97 55.27 55.14 55.32 55.30 55.30 55.27 55.41 55.31 55.04 55.14 56.27 58.69 58.82 61.53 55.37 54.58 52.20 63.57 59.93 60.25 56.75 53.72 51.39 51.66 53.18 57.63 54.70 50.07 52.42 50.63 48.20 48.36 44.64 45.75 52.24 60.63 59.64
54.72 54.60 54.58 54.48 54.41 54.37 55.03 55.17 55.25 55.09 55.08 54.69 54.72 54.68 54.54 54.60 54.66 54.61 54.41 54.74 55.89 58.61 59.27 61.97 60.81 53.25 55.58 57.91 59.51 58.33 57.03 55.85 52.07 52.00 52.81 52.22 50.70 48.49 48.31 47.36 43.09 45.84 46.62 46.73 48.68 56.19 57.35
54.93 54.62 54.64 54.46 54.33 54.60 55.08 54.91 54.77 54.68 54.65 54.59 54.28 54.41 54.33 54.25 54.18 54.02 51.79 48.19 50.49 52.61 53.65 52.19 52.74 55.64 57.23 60.62 60.96 56.56 56.59 54.57 52.99 50.47 45.88 49.57 46.51 44.79 48.08 49.60 51.49 51.34 50.35 49.80 51.06 58.47 55.18
55.34 55.15 55.40 54.93 55.16 55.10 55.03 54.87 54.52 54.33 54.25 54.22 54.20 54.11 54.08 53.88 53.57 53.24 49.40 44.43 48.43 50.78 47.45 55.30 58.24 56.95 58.60 58.13 55.26 56.90 54.99 50.72 49.34 45.98 47.78 46.15 44.06 49.47 52.33 52.27 51.36 50.85 49.37 49.59 52.02 57.30 55.35
56.29 56.17 56.17 55.73 55.38 55.13 55.02 54.75 54.47 54.02 53.87 53.85 53.84 53.73 53.42 53.26 52.78 50.58 48.67 51.39 54.44 50.71 45.46 49.64 56.20 56.33 57.12 58.24 55.95 54.88 52.15 50.39 47.95 46.25 46.33 43.74 46.98 52.21 51.86 50.62 49.18 48.07 46.31 48.07 48.97 53.23 55.52
56.51 56.46 56.13 56.03 55.51 55.24 54.93 54.64 54.20 53.89 53.58 53.39 53.36 53.28 52.99 52.15 46.81 46.57 46.73 50.12 52.26 52.39 41.39 47.21 49.88 53.21 55.33 58.55 54.42 59.19 54.63 52.08 49.41 46.29 46.93 45.56 50.23 49.87 50.15 49.29 48.99 42.60 51.18 51.49 50.42 47.11 45.24
56.50 56.25 56.01 55.79 55.48 55.37 54.96 54.49 53.94 53.62 53.35 53.22 53.13 53.01 52.57 52.28 44.78 45.45 49.48 51.92 51.39 49.79 34.11 50.89 50.39 56.80 55.20 54.10 55.64 54.92 56.17 51.64 48.63 48.06 46.66 45.63 47.75 47.74 47.95 49.37 50.20 47.93 51.51 50.47 50.98 45.78 44.00
56.20 55.95 55.41 55.26 55.33 55.35 54.82 53.86 53.59 53.28 53.13 52.82 52.78 52.55 52.12 48.24 45.26 47.92 50.42 49.36 47.68 42.41 36.62 49.50 51.15 50.75 50.87 52.56 54.25 55.23 53.27 52.84 52.88 48.72 47.58 47.69 50.79 49.67 49.75 51.80 52.14 52.67 50.14 48.65 45.60 43.08 39.36
55.81 55.34 55.12 54.85 55.10 55.02 54.39 53.57 53.26 53.11 52.88 52.49 52.16 51.32 50.24 50.04 42.61 46.08 47.15 45.35 38.30 35.81 49.23 46.19 46.55 48.49 49.82 49.29 51.16 52.75 49.88 48.42 44.89 41.43 42.15 46.08 48.52 50.26 51.94 48.52 51.31 48.82 44.06 38.89 39.65 38.73 39.19
55.66 55.15 54.89 54.41 54.65 54.47 54.10 53.48 53.19 52.97 52.53 51.91 51.03 50.67 49.75 50.37 49.43 48.31 44.47 40.55 32.55 42.69 45.38 49.24 48.51 47.45 48.08 49.40 49.20 50.68 47.89 46.55 48.79 44.89 41.23 41.49 41.93 49.92 52.22 49.87 48.55 46.58 44.83 40.47 36.39 36.61 41.15
54.70 55.12 54.90 54.41 53.92 53.91 53.81 53.56 53.17 52.82 52.24 51.50 50.21 45.48 45.85 47.26 51.22 47.06 42.23 33.48 37.23 41.99 48.27 47.56 47.75 44.90 45.56 48.90 48.80 49.19 46.74 47.55 48.94 46.64 41.97 41.22 43.92 52.34 52.66 52.47 51.48 47.17 43.96 47.45 42.79 39.45 39.76
53.92 54.13 54.57 54.33 53.94 53.69 53.67 53.59 53.30 52.99 52.39 51.01 45.73 42.55 44.81 49.53 52.27 45.51 38.51 36.80 39.17 46.12 47.98 46.99 42.96 45.15 41.90 45.85 45.88 46.87 46.83 49.82 49.31 50.29 47.65 44.98 42.21 48.69 53.28 51.90 50.72 49.20 49.64 43.90 40.40 37.18 35.74
53.74 53.49 53.88 54.08 53.81 53.73 53.56 53.36 53.11 52.79 51.96 50.83 42.32 39.80 46.92 51.02 50.95 41.77 35.46 36.58 42.53 46.91 46.40 43.66 43.31 43.57 43.08 42.70 43.62 44.17 46.08 50.16 52.04 50.43 49.35 47.54 43.83 46.18 49.49 46.74 46.99 46.07 45.03 43.48 43.06 40.89 37.91
52.87 53.28 53.36 53.44 53.46 53.61 53.52 53.22 52.91 52.11 50.91 46.68 39.93 35.84 46.91 51.39 40.54 38.99 35.91 39.92 45.27 44.37 45.48 43.47 44.28 43.85 43.04 44.15 42.80 43.37 45.46 49.66 53.82 53.18 47.73 47.60 42.85 43.24 46.47 50.51 51.01 48.68 46.43 45.01 41.09 39.76 39.95
52.27 52.70 52.97 53.01 53.13 53.40 53.40 53.10 52.76 51.69 50.99 44.30 38.69 38.03 46.89 45.34 35.13 37.36 40.77 44.60 45.52 43.85 44.12 42.10 42.62 45.03 44.71 42.25 40.87 45.30 48.69 53.72 53.17 53.16 50.47 49.59 42.08 39.70 43.50 45.25 47.39 45.70 46.98 45.48 44.09 42.43 40.89
52.08 52.10 52.35 52.72 52.82 52.76 53.13 53.13 52.88 52.29 51.70 43.75 37.50 34.08 39.77 41.51 40.22 38.90 38.45 41.92 44.08 49.34 47.11 46.56 44.28 45.27 43.93 42.97 43.07 43.86 48.47 53.31 53.72 53.01 60.64 56.42 44.39 44.14 43.06 43.17 45.96 44.47 47.53 47.58 45.41 40.86 41.48
51.37 51.56 52.03 52.16 52.28 52.41 52.84 53.11 52.87 52.57 51.80 43.47 38.09 36.11 39.41 35.03 38.25 39.63 38.23 42.02 42.69 43.73 49.03 48.54 43.44 44.29 43.22 38.89 41.18 41.71 47.75 50.13 51.98 56.89 54.61 51.67 43.75 43.88 47.51 48.93 49.32 48.28 48.34 48.35 45.48 44.91 43.74
51.26 51.24 51.60 51.49 52.11 51.84 52.28 52.95 52.83 52.03 51.01 41.84 35.05 35.55 39.53 38.51 39.45 38.56 39.16 38.86 42.79 44.37 44.23 43.89 44.23 47.55 46.48 40.73 42.39 42.69 45.26 45.44 47.61 49.31 53.80 48.96 43.28 45.64 46.78 49.65 48.98 48.08 50.11 49.80 48.70 47.63 46.40
51.09 51.19 51.22 51.21 51.42 51.80 52.16 52.97 52.47 51.50 49.02 41.56 44.38 44.65 41.65 38.68 37.02 36.54 37.28 40.46 41.92 43.32 45.21 47.20 47.04 46.02 45.57 47.03 47.39 47.17 48.42 49.16 49.32 48.92 48.06 47.28 46.04 44.21 44.43 47.84 47.85 43.77 47.89 48.95 49.36 49.31 49.12
51.11 51.26 51.09 50.77 51.28 51.74 51.99 52.43 52.60 51.59 49.90 43.36 42.90 42.85 37.02 35.66 36.68 38.22 40.25 41.96 42.30 42.35 41.89 46.23 49.10 46.52 50.17 52.66 50.98 47.69 48.70 48.51 48.56 47.96 50.37 47.54 43.59 44.16 44.38 41.71 39.20 47.20 51.05 52.88 51.58 52.83 51.79
50.39 50.95 50.73 50.67 50.86 51.21 51.40 51.53 52.51 51.96 51.20 46.33 44.20 43.94 40.36 35.22 39.04 37.92 40.36 40.63 41.61 43.19 43.69 45.87 51.46 50.53 51.29 49.99 44.50 42.80 42.61 43.19 46.11 49.52 50.30 49.27 46.11 43.42 43.66 40.92 44.00 48.77 51.63 51.48 50.00 50.96 55.37
49.96 50.48 50.39 50.50 50.28 50.45 50.98 50.99 51.43 51.95 50.93 47.79 46.09 46.42 43.45 38.78 36.30 40.83 37.96 40.90 38.58 38.21 40.32 47.11 50.63 50.21 49.01 47.32 43.13 38.71 38.10 41.54 42.09 47.10 50.98 48.16 47.28 44.16 41.73 41.03 39.72 46.46 53.69 54.96 55.74 48.79 58.18
49.78 49.83 49.84 49.92 49.81 50.05 50.09 50.54 50.80 51.59 50.85 46.39 43.47 45.81 43.63 39.54 41.31 40.99 37.83 38.54 42.20 40.28 37.88 42.69 43.74 44.02 48.20 42.84 41.08 39.45 39.74 44.93 42.46 43.20 45.21 45.07 44.74 45.58 44.05 40.66 44.71 51.99 54.65 55.46 47.10 48.06 57.08
49.39 49.36 49.31 49.27 49.29 49.61 49.79 49.84 50.26 51.03 51.11 48.65 42.75 45.57 43.97 40.96 41.58 43.54 43.76 40.47 41.11 39.53 37.35 41.99 43.30 43.60 45.16 42.25 41.85 41.19 40.34 43.09 42.14 45.33 46.70 46.13 43.71 42.05 43.82 42.53 41.70 57.65 55.93 49.77 51.07 57.38 58.19
48.67 48.63 48.60 48.58 48.58 48.87 49.41 49.56 49.71 50.37 50.86 49.75 40.14 46.34 48.28 43.35 42.11 45.66 46.07 46.88 46.03 45.48 41.75 42.70 42.50 41.57 44.19 41.43 43.53 44.81 43.66 42.52 40.16 40.13 47.68 44.92 50.46 45.77 47.62 47.70 54.61 57.08 55.53 56.41 57.18 56.49 56.52